TimePST,TemperatureF,Dew PointF,Humidity,Sea Level PressureIn,VisibilityMPH,Wind Direction,Wind SpeedMPH,Gust SpeedMPH,PrecipitationIn,Events,Conditions,WindDirDegrees,DateUTC
12:15 AM,41.0,37.4,87,30.00,10.0,SE,11.5,19.6,N/A,,Clear,140,2013-03-05 08:15:00
12:35 AM,41.0,39.2,93,30.00,10.0,Calm,Calm,-,N/A,,Clear,0,2013-03-05 08:35:00
1:15 AM,41.0,35.6,81,29.98,10.0,ESE,15.0,-,N/A,,Clear,120,2013-03-05 09:15:00
1:35 AM,39.2,37.4,93,29.99,10.0,South,4.6,-,N/A,,Clear,180,2013-03-05 09:35:00
1:55 AM,41.0,35.6,81,29.99,10.0,SE,8.1,-,N/A,,Mostly Cloudy,140,2013-03-05 09:55:00
2:15 AM,41.0,35.6,81,30.00,10.0,ESE,11.5,-,N/A,,Overcast,110,2013-03-05 10:15:00
2:35 AM,41.0,33.8,76,29.98,10.0,ESE,12.7,-,N/A,,Overcast,120,2013-03-05 10:35:00
2:55 AM,42.8,32.0,66,29.97,10.0,ESE,17.3,-,N/A,,Overcast,110,2013-03-05 10:55:00
3:15 AM,44.6,30.2,57,29.96,10.0,ESE,16.1,-,N/A,,Overcast,120,2013-03-05 11:15:00
3:35 AM,44.6,30.2,57,29.94,10.0,ESE,13.8,-,N/A,,Overcast,110,2013-03-05 11:35:00
3:55 AM,44.6,28.4,53,29.94,10.0,ESE,18.4,-,N/A,,Overcast,110,2013-03-05 11:55:00
4:15 AM,44.6,28.4,53,29.93,10.0,East,16.1,-,N/A,,Overcast,100,2013-03-05 12:15:00
4:55 AM,46.4,28.4,50,29.91,10.0,ESE,15.0,-,N/A,,Overcast,110,2013-03-05 12:55:00
5:15 AM,44.6,30.2,57,29.91,10.0,ESE,9.2,-,N/A,,Overcast,120,2013-03-05 13:15:00
5:35 AM,46.4,28.4,50,29.90,10.0,SE,13.8,18.4,N/A,,Overcast,130,2013-03-05 13:35:00
5:55 AM,46.4,28.4,50,29.90,10.0,SE,13.8,-,N/A,,Overcast,140,2013-03-05 13:55:00
6:15 AM,46.4,28.4,50,29.91,10.0,SE,16.1,-,N/A,,Overcast,130,2013-03-05 14:15:00
6:35 AM,46.4,28.4,50,29.90,10.0,ESE,17.3,-,N/A,,Scattered Clouds,120,2013-03-05 14:35:00
6:55 AM,46.4,30.2,53,29.88,10.0,ESE,18.4,-,N/A,,Partly Cloudy,120,2013-03-05 14:55:00
7:15 AM,46.4,32.0,57,29.89,10.0,ESE,13.8,-,N/A,,Partly Cloudy,110,2013-03-05 15:15:00
7:35 AM,48.2,32.0,54,29.90,10.0,SE,13.8,-,N/A,,Partly Cloudy,140,2013-03-05 15:35:00
7:55 AM,48.2,32.0,54,29.89,10.0,SE,16.1,-,N/A,,Mostly Cloudy,140,2013-03-05 15:55:00
8:15 AM,48.2,35.6,62,29.89,10.0,SE,23.0,-,N/A,,Overcast,130,2013-03-05 16:15:00
8:35 AM,48.2,35.6,62,29.89,10.0,SE,25.3,33.4,N/A,,Overcast,130,2013-03-05 16:35:00
8:55 AM,46.4,35.6,66,29.89,10.0,SE,23.0,32.2,N/A,,Mostly Cloudy,130,2013-03-05 16:55:00
9:15 AM,48.2,39.2,71,29.90,10.0,SE,24.2,29.9,N/A,,Overcast,130,2013-03-05 17:15:00
9:35 AM,46.4,41.0,81,29.89,7.0,SE,23.0,27.6,N/A,,Mostly Cloudy,140,2013-03-05 17:35:00
9:55 AM,46.4,44.6,93,29.89,4.0,SE,25.3,29.9,0.01,,Mostly Cloudy,130,2013-03-05 17:55:00
10:15 AM,46.4,44.6,93,29.88,5.0,SE,27.6,31.1,N/A,,Mostly Cloudy,130,2013-03-05 18:15:00
10:55 AM,46.4,42.8,87,29.87,5.0,SE,25.3,32.2,0.01,,Scattered Clouds,130,2013-03-05 18:55:00
11:15 AM,46.4,44.6,93,29.86,7.0,SE,25.3,29.9,0.01,,Partly Cloudy,130,2013-03-05 19:15:00
11:35 AM,46.4,44.6,93,29.85,8.0,SE,26.5,33.4,0.02,,Scattered Clouds,130,2013-03-05 19:35:00
11:55 AM,48.2,44.6,87,29.84,10.0,SE,26.5,34.5,0.02,,Partly Cloudy,130,2013-03-05 19:55:00
12:15 PM,48.2,44.6,87,29.84,10.0,ESE,26.5,31.1,N/A,,Mostly Cloudy,120,2013-03-05 20:15:00
12:35 PM,48.2,44.6,87,29.83,10.0,ESE,21.9,34.5,N/A,,Overcast,120,2013-03-05 20:35:00
12:55 PM,48.2,46.4,93,29.83,7.0,SE,21.9,28.8,N/A,,Mostly Cloudy,130,2013-03-05 20:55:00
1:15 PM,48.2,46.4,93,29.82,7.0,ESE,21.9,27.6,N/A,,Mostly Cloudy,120,2013-03-05 21:15:00
1:35 PM,48.2,46.4,93,29.80,10.0,SE,20.7,27.6,0.01,,Mostly Cloudy,130,2013-03-05 21:35:00
1:55 PM,48.2,46.4,93,29.81,5.0,SE,13.8,-,0.03,,Mostly Cloudy,140,2013-03-05 21:55:00
2:15 PM,48.2,48.2,100,29.80,5.0,SE,16.1,-,0.03,,Mostly Cloudy,130,2013-03-05 22:15:00
2:35 PM,48.2,48.2,100,29.79,5.0,SE,17.3,-,0.06,,Mostly Cloudy,130,2013-03-05 22:35:00
2:55 PM,48.2,48.2,100,29.79,5.0,SE,17.3,-,0.11,,Mostly Cloudy,130,2013-03-05 22:55:00
3:15 PM,46.4,46.4,100,29.79,4.0,SE,15.0,-,0.02,,Scattered Clouds,130,2013-03-05 23:15:00
3:35 PM,46.4,46.4,100,29.78,4.0,SE,18.4,-,0.05,,Mostly Cloudy,130,2013-03-05 23:35:00
3:55 PM,46.4,46.4,100,29.76,5.0,SE,19.6,24.2,0.07,,Scattered Clouds,130,2013-03-05 23:55:00
4:15 PM,46.4,46.4,100,29.75,5.0,SE,20.7,29.9,N/A,,Mostly Cloudy,130,2013-03-06 00:15:00
4:35 PM,46.4,46.4,100,29.73,7.0,ESE,17.3,26.5,0.01,,Overcast,120,2013-03-06 00:35:00
4:55 PM,46.4,46.4,100,29.72,4.0,SE,19.6,24.2,0.02,,Mostly Cloudy,130,2013-03-06 00:55:00
5:15 PM,46.4,46.4,100,29.70,5.0,ESE,25.3,29.9,N/A,,Overcast,120,2013-03-06 01:15:00
5:35 PM,46.4,46.4,100,29.69,7.0,SE,25.3,33.4,0.01,,Mostly Cloudy,130,2013-03-06 01:35:00
5:55 PM,46.4,46.4,100,29.69,5.0,SE,18.4,25.3,0.01,,Overcast,130,2013-03-06 01:55:00
6:15 PM,46.4,46.4,100,29.68,4.0,SE,20.7,26.5,0.02,,Overcast,130,2013-03-06 02:15:00
6:35 PM,46.4,46.4,100,29.68,5.0,SE,23.0,28.8,0.04,,Overcast,130,2013-03-06 02:35:00
6:55 PM,46.4,46.4,100,29.68,5.0,SE,23.0,33.4,0.07,,Overcast,130,2013-03-06 02:55:00
7:15 PM,46.4,46.4,100,29.68,5.0,ESE,16.1,-,0.03,,Overcast,120,2013-03-06 03:15:00
7:35 PM,46.4,46.4,100,29.67,4.0,ESE,18.4,25.3,0.08,,Overcast,120,2013-03-06 03:35:00
7:55 PM,46.4,46.4,100,29.66,5.0,SE,19.6,24.2,0.12,,Overcast,130,2013-03-06 03:55:00
8:15 PM,44.6,44.6,100,29.67,4.0,SE,19.6,24.2,0.04,,Overcast,130,2013-03-06 04:15:00
8:35 PM,44.6,44.6,100,29.69,3.0,WSW,10.4,-,0.13,,Overcast,240,2013-03-06 04:35:00
8:55 PM,44.6,44.6,100,29.69,5.0,ESE,11.5,-,0.24,,Overcast,120,2013-03-06 04:55:00
9:15 PM,44.6,44.6,100,29.69,6.0,ESE,10.4,-,0.04,,Overcast,120,2013-03-06 05:15:00
9:35 PM,44.6,44.6,100,29.68,5.0,ESE,13.8,20.7,0.10,,Overcast,110,2013-03-06 05:35:00
9:55 PM,44.6,44.6,100,29.68,5.0,ESE,13.8,21.9,0.13,,Overcast,120,2013-03-06 05:55:00
10:15 PM,42.8,42.8,100,29.67,7.0,SE,16.1,-,0.03,,Overcast,130,2013-03-06 06:15:00
10:35 PM,41.0,41.0,100,29.66,7.0,ESE,12.7,20.7,0.08,,Overcast,120,2013-03-06 06:35:00
10:55 PM,41.0,41.0,100,29.66,10.0,ESE,16.1,-,0.08,,Overcast,110,2013-03-06 06:55:00
11:15 PM,41.0,41.0,100,29.64,8.0,ESE,12.7,-,0.01,,Overcast,120,2013-03-06 07:15:00
11:35 PM,41.0,41.0,100,29.63,7.0,ESE,15.0,-,0.02,,Overcast,120,2013-03-06 07:35:00
11:55 PM,41.0,41.0,100,29.63,9.0,ESE,17.3,-,0.03,,Overcast,120,2013-03-06 07:55:00